Hagerstown, MD

10:11 AM EST on November 22, 2019 (GMT -0500)
Hagerstown Regional-Henson

Weather History for KHGR - September, 2019

Change the Weather History Date:

Saturday, September 7, 2019

  Actual Average Record
Temperature  
Mean Temperature 72 °F 69 °F  
Max Temperature 82 °F 78 °F 93 °F (2010)
Min Temperature 61 °F 60 °F 50 °F (2000)
Degree Days  
Heating Degree Days 0 1  
Month to date heating degree days 0 2  
Since 1 July heating degree days 0 7  
Cooling Degree Days 7 5  
Month to date cooling degree days 62 38  
Year to date cooling degree days 1271 906  
Growing Degree Days 20 (Base 50)    
Moisture  
Dew Point 54 °F    
Average Humidity 61    
Maximum Humidity 84    
Minimum Humidity 37    
Precipitation  
Precipitation 0.00 in 0.10 in 0.77 in (2018)
Month to date precipitation 0.05 0.68  
Year to date precipitation 28.42 27.31  
Sea Level Pressure  
Sea Level Pressure 29.92 in    
Wind  
Wind Speed 6 mph (WNW)    
Max Wind Speed 17 mph    
Max Gust Speed 24 mph    
Visibility 10 miles    
Events      
T = Trace of Precipitation, MM = Missing Value Source: NWS Daily Summary

Daily Weather History Graph

Daily Weather History Graph

Search for Another Location

Airport or City:

Astronomy

Sep. 07, 2019 Rise Set
Actual Time 6:44 AM EDT 7:32 PM EDT
Civil Twilight 6:16 AM EDT 8:00 PM EDT
Nautical Twilight 5:44 AM EDT 8:32 PM EDT
Astronomical Twilight 5:10 AM EDT 9:05 PM EDT
Moon 3:46 PM EDT (9/7) 12:35 AM EDT (9/7)
Length of Visible Light 13h 43m
Length of Day
12h 48m
Waxing Gibbous, 65% of the Moon is Illuminated
Sep 7
Waxing Gibbous
Sep 14
Full
Sep 21
Last Quarter
Sep 28
New
Oct 5
First Quarter

Hourly Weather History & Observations

Time (EDT) Temp. Dew Point Humidity Pressure Visibility Wind Dir Wind Speed Gust Speed Precip Events Conditions
12:53 AM 66.0 °F 55.9 °F 70% 29.84 in 10.0 mi SSE 3.5 mph - N/A   Overcast
1:53 AM 64.9 °F 57.0 °F 75% 29.85 in 10.0 mi Calm Calm - N/A   Mostly Cloudy
2:53 AM 63.0 °F 57.0 °F 81% 29.84 in 10.0 mi Calm Calm - N/A   Partly Cloudy
3:53 AM 64.0 °F 55.9 °F 75% 29.84 in 10.0 mi Calm Calm - N/A   Clear
4:53 AM 62.1 °F 55.9 °F 80% 29.85 in 10.0 mi Calm Calm - N/A   Clear
5:53 AM 61.0 °F 55.9 °F 83% 29.87 in 10.0 mi Calm Calm - N/A   Clear
6:53 AM 64.0 °F 57.0 °F 78% 29.90 in 10.0 mi WSW 3.5 mph - N/A   Clear
7:53 AM 64.9 °F 57.0 °F 75% 29.92 in 10.0 mi NW 5.8 mph - N/A   Clear
8:53 AM 68.0 °F 57.0 °F 68% 29.93 in 10.0 mi WNW 9.2 mph - N/A   Clear
9:53 AM 71.1 °F 55.0 °F 57% 29.94 in 10.0 mi NNW 11.5 mph - N/A   Clear
10:53 AM 73.9 °F 55.0 °F 52% 29.95 in 10.0 mi NW 10.4 mph - N/A   Clear
11:53 AM 75.9 °F 53.1 °F 45% 29.94 in 10.0 mi West 9.2 mph - N/A   Clear
12:53 PM 75.9 °F 53.1 °F 45% 29.93 in 10.0 mi North - - N/A   Scattered Clouds
1:53 PM 78.1 °F 52.0 °F 40% 29.93 in 10.0 mi NW 11.5 mph - N/A   Mostly Cloudy
2:53 PM 78.1 °F 52.0 °F 40% 29.92 in 10.0 mi NW 11.5 mph - N/A   Overcast
3:53 PM 78.1 °F 50.0 °F 37% 29.91 in 10.0 mi WNW 13.8 mph 21.9 mph N/A   Mostly Cloudy
4:53 PM 78.1 °F 51.1 °F 39% 29.91 in 10.0 mi NW 13.8 mph 21.9 mph N/A   Mostly Cloudy
5:53 PM 79.0 °F 52.0 °F 39% 29.92 in 10.0 mi NW 11.5 mph - N/A   Clear
6:53 PM 75.9 °F 54.0 °F 46% 29.94 in 10.0 mi NW 6.9 mph - N/A   Clear
7:53 PM 73.9 °F 54.0 °F 50% 29.95 in 10.0 mi Calm Calm - N/A   Scattered Clouds
8:53 PM 73.0 °F 53.1 °F 49% 29.97 in 10.0 mi West 6.9 mph - N/A   Mostly Cloudy
9:53 PM 71.1 °F 54.0 °F 55% 29.99 in 10.0 mi West 5.8 mph - N/A   Clear
10:53 PM 72.0 °F 55.0 °F 55% 30.00 in 10.0 mi SW 3.5 mph - N/A   Overcast
11:53 PM 66.9 °F 55.0 °F 66% 30.01 in 10.0 mi West 3.5 mph - N/A   Partly Cloudy